Location: Radomski Observatory
(40.2854°N, 79.5145°W)
Time: 01:39:19
(UTC-04:00)

Amateur Radio Satellites - All Passes

Search period start: 26 May 2015 01:09
Search period end: 27 May 2015 01:09
Location: Radomski Observatory, 40.2854°N, 79.5145°W

Satellite Date Start Highest point End Downlink Frequencies (MHz)
Time Altitude Azimuth
CUSAT 1 26 May 01:12:30 01:19:50 68° 265° (W) 01:25:29 437.405
TISAT 1 26 May 01:20:38 01:24:45 49° 261° (W) 01:28:54 437.305
UNISAT 6 26 May 01:24:55 01:26:59 13° 296° (WNW) 01:28:50 437.425
BUGSAT 1 26 May 01:28:39 01:32:30 32° 289° (WNW) 01:36:14 437.445
Oscar 19 26 May 01:32:24 01:34:39 13° 88° (E) 01:37:12 437.125/150
ITUPSAT 1 26 May 01:35:12 01:39:29 36° 70° (ENE) 01:43:52 437.325
O/OREOS (USA 219) 26 May 01:36:00 01:39:41 25° 58° (ENE) 01:43:25 437.305
GONETS M04 26 May 01:36:05 01:44:55 78° 265° (W) 01:53:36
ISS 26 May 01:41:10 01:44:04 29° 333° (NNW) 01:46:59 145.825
QB50P1 26 May 01:41:38 01:44:29 17° 293° (WNW) 01:47:09 145.935-145.965
POLYITAN 1 26 May 01:43:00 01:45:44 16° 294° (WNW) 01:48:19 437.675
BEESAT 26 May 01:43:31 01:48:00 44° 71° (ENE) 01:52:32 436.000
SWISSCUBE 26 May 01:51:37 01:56:16 58° 73° (ENE) 02:00:58 437.505
Cosmos 2499 26 May 01:56:07 02:01:42 25° 68° (ENE) 02:07:30 435.465 / 435.565
KKS-1 26 May 02:09:47 02:12:12 15° 65° (ENE) 02:14:48 437.445
DANDE 26 May 02:15:30 02:22:13 31° 275° (W) 02:27:39 436.750
PCSat 26 May 02:29:21 02:34:36 50° 304° (NW) 02:39:54 145.827
BEESAT 3 26 May 02:41:21 02:44:04 17° 44° (NE) 02:46:52 437.485
VERMONT LUNAR 26 May 03:06:39 03:09:39 36° 158° (SSE) 03:12:39 437.305
Oscar 19 26 May 03:09:29 03:14:38 70° 286° (WNW) 03:19:44 437.125/150
AIST 2 26 May 03:12:01 03:12:46 10° 37° (NE) 03:13:42 435.215
ITUPSAT 1 26 May 03:13:41 03:17:30 23° 266° (W) 03:21:14 437.325
STARS 26 May 03:14:58 03:19:11 43° 72° (ENE) 03:23:25 437.465
O/OREOS (USA 219) 26 May 03:15:11 03:19:08 30° 255° (WSW) 03:23:00 437.305
ISS 26 May 03:19:53 03:21:18 12° 353° (N) 03:22:43 145.825
ITAMSAT 1 26 May 03:20:52 03:25:49 43° 98° (E) 03:30:49 435.822/435.867
PHONESAT 2.4 26 May 03:21:37 03:23:57 17° 149° (SSE) 03:26:20 2401.200-2431.200
BEESAT 26 May 03:22:43 03:26:06 19° 268° (W) 03:29:21 436.000
BEESAT 2 26 May 03:27:45 03:31:35 37° 51° (NE) 03:35:23 435.950
SWISSCUBE 26 May 03:32:00 03:34:35 14° 271° (W) 03:36:56 437.505
GONETS M04 26 May 03:36:10 03:40:27 14° 283° (WNW) 03:44:05
KKS-1 26 May 03:44:02 03:48:26 55° 260° (W) 03:52:52 437.445
Cosmos 2499 26 May 03:48:27 03:55:18 54° 268° (W) 04:02:11 435.465 / 435.565
Gurwin Techsat 1B 26 May 03:51:27 03:56:48 80° 102° (ESE) 04:02:08 435.225
SO-50 26 May 04:12:44 04:17:24 85° 124° (SE) 04:22:17 436.795
BEESAT 3 26 May 04:18:24 04:22:23 51° 242° (WSW) 04:26:15 437.485
JAS-2 26 May 04:24:44 04:29:06 27° 95° (E) 04:33:38 435.910
HORYU 2 26 May 04:28:32 04:32:25 30° 96° (E) 04:36:21 437.375
VERMONT LUNAR 26 May 04:43:31 04:46:44 89° 13° (NNE) 04:49:56 437.305
AIST 2 26 May 04:47:58 04:52:11 73° 56° (NE) 04:56:20 435.215
STARS 26 May 04:52:55 04:55:53 17° 269° (W) 04:58:41 437.465
ISS 26 May 04:56:56 04:58:47 14° 13° (NNE) 05:00:39 145.825
PHONESAT 2.4 26 May 04:58:16 05:01:41 60° 165° (SSE) 05:05:08 2401.200-2431.200
ITAMSAT 1 26 May 05:00:58 05:05:06 24° 294° (WNW) 05:09:07 435.822/435.867
MOZHAYETS 4 26 May 05:04:36 05:09:11 81° 75° (ENE) 05:13:46
BEESAT 2 26 May 05:06:24 05:09:27 20° 248° (WSW) 05:12:21 435.950
AO-7 26 May 05:14:02 05:22:18 61° 103° (ESE) 05:30:34 29.400- 29.500
Cosmos 2491 26 May 05:26:01 05:30:27 15° 57° (ENE) 05:35:26 435.465 / 435.565
Gurwin Techsat 1B 26 May 05:33:28 05:36:10 14° 299° (WNW) 05:38:38 435.225
SO-50 26 May 05:55:42 05:58:41 16° 322° (NW) 06:01:35 436.795
STRAND 1 26 May 05:58:21 06:00:13 12° 61° (ENE) 06:02:21 437.568
HORYU 2 26 May 06:05:22 06:08:57 24° 292° (WNW) 06:12:28 437.375
JAS-2 26 May 06:09:43 06:14:20 32° 291° (WNW) 06:18:57 435.910
VERMONT LUNAR 26 May 06:20:45 06:23:57 78° 189° (S) 06:27:08 437.305
YUBILEINY 26 May 06:21:45 06:24:11 12° 76° (ENE) 06:27:22 435.215
ISS 26 May 06:32:39 06:35:50 46° 32° (NNE) 06:39:00 145.825
PHONESAT 2.4 26 May 06:36:19 06:39:48 84° 5° (N) 06:43:16 2401.200-2431.200
CUBESAT XI-V 26 May 06:40:20 06:44:53 66° 75° (ENE) 06:49:29 437.345
PRISM 26 May 06:54:39 06:58:29 41° 72° (ENE) 07:02:22 437.425
CUTE-I 26 May 07:05:01 07:09:55 36° 96° (E) 07:14:51 437.470
AO-7 26 May 07:07:31 07:14:41 32° 301° (WNW) 07:21:40 29.400- 29.500
M-CUBED/EXP-1 PRIME 26 May 07:16:37 07:20:49 56° 70° (ENE) 07:24:43 437.505
Cosmos 2491 26 May 07:20:22 07:29:14 76° 81° (E) 07:38:02 435.465 / 435.565
Cubesat XI-IV 26 May 07:25:04 07:30:20 56° 100° (E) 07:35:37 437.490
AUBIESAT-1 26 May 07:25:46 07:29:57 62° 70° (ENE) 07:33:50 437.475
STRAND 1 26 May 07:33:42 07:38:47 85° 255° (WSW) 07:43:56 437.568
VERMONT LUNAR 26 May 07:58:14 08:00:54 24° 206° (SSW) 08:03:33 437.305
BRITE-PL 26 May 07:59:27 08:01:40 13° 85° (E) 08:04:13 437.365/2234.400
ISS 26 May 08:09:39 08:12:03 19° 227° (SW) 08:14:22 145.825
YUBILEINY 26 May 08:10:56 08:19:37 71° 94° (E) 08:28:19 435.215
PHONESAT 2.4 26 May 08:14:28 08:17:52 55° 198° (SSW) 08:21:16 2401.200-2431.200
CUBESAT XI-V 26 May 08:21:08 08:22:53 12° 272° (W) 08:24:20 437.345
PRISM 26 May 08:31:47 08:34:11 15° 269° (W) 08:36:26 437.425
AIST 1 26 May 08:45:01 08:49:24 75° 264° (W) 08:53:47
CUTE-I 26 May 08:45:17 08:49:54 29° 293° (WNW) 08:54:25 437.470
HO-68 26 May 08:46:26 08:51:10 19° 90° (E) 08:56:14 435.675
M-CUBED/EXP-1 PRIME 26 May 08:54:07 08:55:55 12° 263° (W) 08:57:27 437.505
SEEDS 26 May 08:59:35 09:00:42 11° 88° (E) 09:02:05 437.485
AUBIESAT-1 26 May 09:03:58 09:05:02 11° 264° (W) 09:05:49 437.475
Cubesat XI-IV 26 May 09:06:13 09:10:04 20° 296° (WNW) 09:13:45 437.490
RS-15 26 May 09:08:21 09:18:29 49° 111° (ESE) 09:28:59 29.354- 29.394
DOVE 4 26 May 09:10:55 09:14:59 24° 91° (E) 09:18:58 437.250
COMPASS 1 26 May 09:13:39 09:15:32 13° 90° (E) 09:17:38 437.405
Cosmos 2491 26 May 09:18:50 09:25:16 22° 279° (W) 09:31:15 435.465 / 435.565
AAUSAT CUBESAT 2 26 May 09:26:07 09:28:34 16° 91° (E) 09:31:11 437.432
PCSat 26 May 09:35:09 09:38:58 19° 44° (NE) 09:42:54 145.827
BRITE-PL 26 May 09:35:19 09:41:01 83° 285° (WNW) 09:46:28 437.365/2234.400
GOMX 1 26 May 09:42:40 09:48:05 77° 101° (E) 09:53:13 467.674
ANTELSAT 26 May 09:53:04 09:55:46 16° 65° (ENE) 09:58:39 437.575/2403.000
PHONESAT 2.4 26 May 09:53:28 09:55:34 15° 212° (SSW) 09:57:37 2401.200-2431.200
CUBEBUG 2 26 May 09:54:37 09:56:54 14° 89° (E) 09:59:20 437.445
Cosmos 2504 26 May 10:00:05 10:07:26 37° 88° (E) 10:14:31 435.465 / 435.565
DELFI C3 26 May 10:00:18 10:01:38 12° 89° (E) 10:03:12 145.870
CANX-2 26 May 10:05:02 10:09:17 88° 285° (WNW) 10:13:29 2200.000
CUTE 1.7 + AOD 2 26 May 10:08:44 10:12:58 89° 284° (WNW) 10:17:10 437.475
YUBILEINY 26 May 10:10:21 10:17:22 25° 295° (WNW) 10:24:05 435.215
Oscar 11 26 May 10:13:40 10:17:13 25° 94° (E) 10:20:49 145.826/435.025
POPSAT HIP 1 26 May 10:16:02 10:17:02 11° 64° (ENE) 10:18:17 437.405
DUCHIFAT 1 26 May 10:18:28 10:19:41 11° 64° (ENE) 10:21:09 145.980
TIGRISAT 26 May 10:24:44 10:28:50 31° 70° (ENE) 10:32:58 435.000
CINEMA 3 26 May 10:32:12 10:36:59 78° 101° (E) 10:41:30 145.822/145.860
HO-68 26 May 10:32:32 10:39:42 75° 288° (WNW) 10:46:48 435.675
SEEDS 26 May 10:32:50 10:36:57 57° 286° (WNW) 10:41:01 437.485
UWE-3 26 May 10:42:26 10:46:33 38° 97° (E) 10:50:32 435.000/436.395/437.385
UNISAT 6 26 May 10:44:17 10:48:50 51° 74° (ENE) 10:53:22 437.425
BUGSAT 1 26 May 10:44:19 10:46:34 15° 66° (ENE) 10:49:00 437.445
COMPASS 1 26 May 10:47:33 10:51:33 47° 286° (WNW) 10:55:32 437.405
DOVE 4 26 May 10:48:07 10:52:53 38° 290° (WNW) 10:57:22 437.250
FUNcube-1 26 May 10:54:47 10:58:51 39° 97° (E) 11:02:50 145.935
QB50P1 26 May 10:57:10 11:00:53 30° 70° (ENE) 11:04:42 145.935-145.965
POLYITAN 1 26 May 10:58:36 11:02:24 32° 71° (ENE) 11:06:17 437.675
AAUSAT CUBESAT 2 26 May 11:00:32 11:04:24 39° 287° (WNW) 11:08:15 437.432
SO-50 26 May 11:06:05 11:08:08 13° 35° (NE) 11:10:21 436.795
50 SAT 26 May 11:09:59 11:11:51 13° 90° (E) 11:13:53 437.505
BRITE-PL 26 May 11:16:19 11:18:41 12° 300° (WNW) 11:20:43 437.365/2234.400
PCSat 26 May 11:17:34 11:22:59 71° 244° (WSW) 11:28:22 145.827
RS-15 26 May 11:20:22 11:30:56 51° 314° (NW) 11:41:45 29.354- 29.394
GOMX 1 26 May 11:22:32 11:25:31 15° 298° (WNW) 11:28:12 467.674
ANTELSAT 26 May 11:27:32 11:32:10 55° 260° (W) 11:36:45 437.575/2403.000
NANOSAT C BR1 26 May 11:28:15 11:32:29 68° 74° (ENE) 11:36:45 145.865
CUBEBUG 2 26 May 11:29:40 11:34:00 49° 287° (WNW) 11:38:11 437.445
DELFI C3 26 May 11:33:13 11:37:07 50° 286° (WNW) 11:40:59 145.870
ZACube-1 26 May 11:34:49 11:39:10 69° 285° (WNW) 11:43:21 437.345
QB50P2 26 May 11:35:36 11:39:53 85° 77° (ENE) 11:44:13 145.880/145.840
HUMSAT D 26 May 11:35:41 11:39:46 53° 99° (E) 11:43:47 437.325/437.525
UKube-1 26 May 11:38:18 11:42:35 53° 101° (E) 11:46:50 .
DX 1 26 May 11:45:46 11:50:10 71° 102° (ESE) 11:54:32 434.975-435.025
POPSAT HIP 1 26 May 11:48:06 11:52:23 71° 259° (W) 11:56:42 437.405
Oscar 11 26 May 11:49:43 11:53:23 27° 290° (WNW) 11:56:58 145.826/435.025
DUCHIFAT 1 26 May 11:50:45 11:54:59 68° 259° (WSW) 11:59:16 145.980
Cosmos 2504 26 May 11:52:47 12:00:44 45° 285° (WNW) 12:08:08 435.465 / 435.565
ESTCUBE 1 26 May 11:56:47 12:00:37 27° 95° (E) 12:04:30 437.505/2401.250
VELOX 1 26 May 11:56:48 12:01:06 45° 99° (E) 12:05:25 145.980
CUBEBUG 1 26 May 11:57:51 12:01:25 24° 94° (E) 12:05:04 437.445
TIGRISAT 26 May 12:01:38 12:05:36 26° 266° (W) 12:09:27 435.000
CINEMA 3 26 May 12:11:48 12:13:31 12° 298° (WNW) 12:14:59 145.822/145.860
BUGSAT 1 26 May 12:17:40 12:21:40 47° 261° (W) 12:25:45 437.445
UWE-3 26 May 12:19:40 12:22:49 19° 293° (WNW) 12:25:47 435.000/436.395/437.385
HO-68 26 May 12:22:38 12:26:23 15° 306° (NW) 12:29:46 435.675
UNISAT 6 26 May 12:23:01 12:25:57 16° 270° (W) 12:28:41 437.425
AISAT 26 May 12:28:02 12:32:34 78° 283° (WNW) 12:37:02 437.250
FUNcube-1 26 May 12:31:57 12:34:55 18° 293° (WNW) 12:37:42 145.935
QB50P1 26 May 12:33:23 12:36:48 22° 266° (W) 12:40:09 145.935-145.965
CUSAT 1 26 May 12:34:30 12:40:12 26° 84° (E) 12:46:45 437.405
POLYITAN 1 26 May 12:35:02 12:38:23 21° 267° (W) 12:41:40 437.675
SPROUT 26 May 12:40:05 12:43:07 19° 92° (E) 12:46:16 437.525
GONETS M04 26 May 12:41:49 12:48:25 26° 83° (E) 12:55:22
50 SAT 26 May 12:43:09 12:46:49 40° 287° (WNW) 12:50:26 437.505
SO-50 26 May 12:44:45 12:49:42 67° 56° (NE) 12:54:35 436.795
Oscar 19 26 May 12:48:16 12:51:55 20° 65° (ENE) 12:55:43 437.125/150
TISAT 1 26 May 13:05:59 13:09:33 26° 95° (E) 13:13:09 437.305
HUMSAT D 26 May 13:13:04 13:15:06 13° 295° (WNW) 13:16:56 437.325/437.525
UKube-1 26 May 13:15:52 13:18:18 14° 295° (WNW) 13:20:34 .
DX 1 26 May 13:24:19 13:25:53 11° 297° (WNW) 13:27:13 434.975-435.025
ESTCUBE 1 26 May 13:33:33 13:37:27 28° 291° (WNW) 13:41:16 437.505/2401.250
CUBEBUG 1 26 May 13:33:52 13:37:49 30° 290° (WNW) 13:41:40 437.445
VELOX 1 26 May 13:34:20 13:37:21 17° 294° (WNW) 13:40:13 145.980
Gurwin Techsat 1B 26 May 13:34:56 13:37:55 16° 63° (ENE) 13:41:08 435.225
RS-15 26 May 13:38:56 13:47:00 22° 346° (NNW) 13:55:08 29.354- 29.394
DANDE 26 May 13:39:05 13:45:52 59° 93° (E) 13:54:05 436.750
BEESAT 26 May 13:46:29 13:47:57 11° 88° (E) 13:49:42 436.000
SWISSCUBE 26 May 13:53:46 13:56:31 16° 90° (E) 13:59:30 437.505
CUSAT 1 26 May 14:15:00 14:22:13 66° 283° (WNW) 14:30:30 437.405
SPROUT 26 May 14:15:21 14:19:22 36° 288° (WNW) 14:23:18 437.525
AO-7 26 May 14:23:58 14:28:47 18° 51° (NE) 14:34:00 29.400- 29.500
Oscar 19 26 May 14:25:51 14:30:55 51° 260° (W) 14:36:00 437.125/150
SO-50 26 May 14:26:53 14:29:46 15° 251° (WSW) 14:32:24 436.795
Cosmos 2499 26 May 14:32:56 14:38:38 23° 85° (E) 14:44:23 435.465 / 435.565
GONETS M04 26 May 14:35:48 14:44:36 68° 281° (W) 14:53:26
ITAMSAT 1 26 May 14:38:18 14:43:23 63° 73° (ENE) 14:48:31 435.822/435.867
JAS-2 26 May 14:38:34 14:41:41 15° 62° (ENE) 14:44:57 435.910
TISAT 1 26 May 14:41:41 14:45:17 26° 291° (WNW) 14:48:48 437.305
Gurwin Techsat 1B 26 May 15:12:06 15:17:23 69° 258° (WSW) 15:22:42 435.225
ITUPSAT 1 26 May 15:13:27 15:18:16 87° 282° (WNW) 15:23:04 437.325
BEESAT 26 May 15:21:37 15:26:24 71° 285° (WNW) 15:31:08 436.000
DANDE 26 May 15:23:22 15:29:45 31° 296° (WNW) 15:36:51 436.750
HORYU 2 26 May 15:26:25 15:30:12 28° 69° (ENE) 15:34:03 437.375
SWISSCUBE 26 May 15:30:06 15:34:47 53° 287° (WNW) 15:39:25 437.505
KKS-1 26 May 15:35:57 15:39:50 29° 96° (E) 15:43:45 437.445
O/OREOS (USA 219) 26 May 15:47:40 15:51:35 30° 105° (ESE) 15:55:35 437.305
RS-15 26 May 15:56:17 16:04:55 24° 21° (NNE) 16:14:03 29.354- 29.394
CUSAT 1 26 May 16:02:43 16:06:52 14° 306° (NW) 16:10:42 437.405
AO-7 26 May 16:12:10 16:20:25 77° 70° (ENE) 16:28:45 29.400- 29.500
JAS-2 26 May 16:19:27 16:26:17 89° 82° (E) 16:32:19 435.910
ITAMSAT 1 26 May 16:20:22 16:23:25 15° 271° (W) 16:26:13 435.822/435.867
Cosmos 2499 26 May 16:23:07 16:31:17 68° 280° (W) 16:38:51 435.465 / 435.565
GONETS M04 26 May 16:39:35 16:43:38 13° 305° (NW) 16:47:02
STARS 26 May 16:41:15 16:45:43 87° 284° (WNW) 16:50:07 437.465
MOZHAYETS 4 26 May 17:01:07 17:04:22 20° 92° (E) 17:07:46
HORYU 2 26 May 17:02:58 17:06:48 27° 265° (W) 17:10:36 437.375
Cubesat XI-IV 26 May 17:10:56 17:12:33 12° 60° (ENE) 17:14:27 437.490
KKS-1 26 May 17:12:39 17:16:24 26° 291° (WNW) 17:20:02 437.445
O/OREOS (USA 219) 26 May 17:27:14 17:31:02 25° 301° (WNW) 17:34:46 437.305
AO-7 26 May 18:07:53 18:14:08 22° 269° (W) 18:20:03 29.400- 29.500
JAS-2 26 May 18:08:52 18:12:03 13° 271° (W) 18:14:39 435.910
RS-15 26 May 18:09:04 18:20:30 61° 50° (NE) 18:32:27 29.354- 29.394
BEESAT 3 26 May 18:10:45 18:14:19 31° 115° (ESE) 18:17:59 437.485
YUBILEINY 26 May 18:22:12 18:29:47 34° 69° (ENE) 18:37:32 435.215
Cosmos 2499 26 May 18:23:24 18:26:05 11° 302° (WNW) 18:28:05 435.465 / 435.565
CUTE-I 26 May 18:26:20 18:31:29 56° 73° (ENE) 18:36:43 437.470
Cosmos 2491 26 May 18:28:31 18:33:15 17° 79° (E) 18:38:34 435.465 / 435.565
MOZHAYETS 4 26 May 18:37:31 18:41:47 38° 288° (WNW) 18:46:00
CUBESAT XI-V 26 May 18:38:35 18:41:37 17° 91° (E) 18:44:50 437.345
AIST 2 26 May 18:46:35 18:49:24 18° 111° (ESE) 18:52:20 435.215
Cubesat XI-IV 26 May 18:46:37 18:51:56 86° 78° (ENE) 18:57:18 437.490
BEESAT 2 26 May 18:58:16 19:02:23 85° 119° (ESE) 19:06:33 435.950
BRITE-PL 26 May 19:09:46 19:12:17 14° 61° (ENE) 19:15:07 437.365/2234.400
HO-68 26 May 19:16:29 19:20:14 16° 55° (NE) 19:24:19 435.675
GOMX 1 26 May 19:16:55 19:17:19 10° 59° (ENE) 19:18:03 467.674
STRAND 1 26 May 19:45:01 19:49:39 34° 96° (E) 19:54:20 437.568
BEESAT 3 26 May 19:48:53 19:52:20 25° 312° (NW) 19:55:47 437.485
CUTE-I 26 May 20:08:22 20:12:01 18° 270° (W) 20:15:26 437.470
PRISM 26 May 20:12:21 20:16:31 77° 102° (ESE) 20:20:41 437.425
CUBESAT XI-V 26 May 20:14:50 20:19:21 46° 287° (WNW) 20:23:49 437.345
DOVE 4 26 May 20:15:34 20:19:38 25° 67° (ENE) 20:23:55 437.250
AAUSAT CUBESAT 2 26 May 20:18:12 20:19:17 11° 65° (ENE) 20:20:35 437.432
YUBILEINY 26 May 20:18:38 20:27:01 52° 269° (W) 20:35:16 435.215
Cosmos 2491 26 May 20:20:12 20:29:00 88° 97° (E) 20:37:55 435.465 / 435.565
RS-15 26 May 20:21:59 20:32:43 42° 251° (WSW) 20:43:33 29.354- 29.394
AIST 2 26 May 20:23:34 20:27:40 44° 307° (NW) 20:31:48 435.215
Cubesat XI-IV 26 May 20:31:23 20:32:52 11° 274° (W) 20:33:57 437.490
M-CUBED/EXP-1 PRIME 26 May 20:33:12 20:36:20 39° 104° (ESE) 20:39:29 437.505
BEESAT 2 26 May 20:39:11 20:41:05 13° 320° (NW) 20:42:52 435.950
AUBIESAT-1 26 May 20:41:42 20:44:53 43° 105° (ESE) 20:48:03 437.475
BRITE-PL 26 May 20:44:59 20:50:02 80° 257° (WSW) 20:55:32 437.365/2234.400
GOMX 1 26 May 20:49:25 20:54:31 75° 76° (ENE) 20:59:57 467.674
CUBEBUG 2 26 May 20:52:41 20:55:01 14° 65° (ENE) 20:57:34 437.445
CANX-2 26 May 20:57:12 21:01:24 60° 75° (ENE) 21:05:36 2200.000
HO-68 26 May 20:59:48 21:06:59 79° 72° (ENE) 21:14:12 435.675
CUTE 1.7 + AOD 2 26 May 21:00:49 21:05:00 60° 75° (ENE) 21:09:13 437.475
Oscar 11 26 May 21:08:31 21:11:35 20° 68° (ENE) 21:14:46 145.826/435.025
AIST 1 26 May 21:13:45 21:17:57 65° 95° (E) 21:22:12
SEEDS 26 May 21:23:56 21:28:11 90° 254° (WSW) 21:32:25 437.485
STRAND 1 26 May 21:24:21 21:28:46 29° 292° (WNW) 21:33:05 437.568
CINEMA 3 26 May 21:32:30 21:37:26 67° 75° (ENE) 21:42:28 145.822/145.860
COMPASS 1 26 May 21:37:47 21:41:58 78° 257° (WSW) 21:46:10 437.405
UWE-3 26 May 21:38:45 21:42:52 32° 71° (ENE) 21:47:03 435.000/436.395/437.385
Cosmos 2504 26 May 21:45:23 21:52:33 63° 79° (E) 21:59:42 435.465 / 435.565
FUNcube-1 26 May 21:49:48 21:53:49 32° 71° (ENE) 21:57:54 145.935
AAUSAT CUBESAT 2 26 May 21:50:16 21:54:25 65° 259° (W) 21:58:34 437.432
DOVE 4 26 May 21:52:18 21:57:08 41° 264° (W) 22:02:07 437.250
M-CUBED/EXP-1 PRIME 26 May 22:09:56 22:10:55 11° 299° (WNW) 22:11:45 437.505
DELFI C3 26 May 22:19:38 22:23:40 88° 79° (ENE) 22:27:43 145.870
Cosmos 2491 26 May 22:21:07 22:27:18 20° 299° (WNW) 22:33:05 435.465 / 435.565
CUBEBUG 2 26 May 22:26:28 22:31:13 67° 260° (W) 22:35:59 437.445
HUMSAT D 26 May 22:26:48 22:30:44 36° 72° (ENE) 22:34:42 437.325/437.525
ZACube-1 26 May 22:29:32 22:34:09 86° 73° (ENE) 22:38:45 437.345
GOMX 1 26 May 22:30:54 22:33:24 13° 275° (W) 22:35:37 467.674
UKube-1 26 May 22:32:35 22:36:39 42° 72° (ENE) 22:40:47 .
CANX-2 26 May 22:36:29 22:37:48 11° 272° (W) 22:38:51 2200.000
CUTE 1.7 + AOD 2 26 May 22:40:00 22:41:24 11° 272° (W) 22:42:31 437.475
UNISAT 6 26 May 22:40:22 22:40:32 10° 87° (E) 22:41:01 437.425
DX 1 26 May 22:40:42 22:44:57 57° 74° (ENE) 22:49:16 434.975-435.025
Oscar 11 26 May 22:43:32 22:47:33 36° 263° (W) 22:51:33 145.826/435.025
HO-68 26 May 22:50:43 22:55:35 18° 271° (W) 23:00:04 435.675
VELOX 1 26 May 22:53:55 22:58:00 38° 71° (ENE) 23:02:09 145.980
CUBEBUG 1 26 May 22:54:04 22:57:09 20° 67° (ENE) 23:00:22 437.445
GONETS M04 26 May 22:54:12 22:56:12 11° 53° (NE) 22:58:54
AIST 1 26 May 22:55:38 22:56:12 10° 294° (WNW) 22:56:30
ESTCUBE 1 26 May 22:56:17 22:59:51 24° 68° (ENE) 23:03:29 437.505/2401.250
ISS 26 May 23:12:21 23:14:33 17° 132° (SE) 23:16:49 145.825
CINEMA 3 26 May 23:12:34 23:15:11 14° 273° (W) 23:17:32 145.822/145.860
CUSAT 1 26 May 23:14:38 23:19:15 18° 57° (ENE) 23:23:32 437.405
UWE-3 26 May 23:15:29 23:19:25 25° 266° (W) 23:23:17 435.000/436.395/437.385
NANOSAT C BR1 26 May 23:16:04 23:17:20 11° 88° (E) 23:18:50 145.865
ANTELSAT 26 May 23:20:34 23:24:26 30° 96° (E) 23:28:15 437.575/2403.000
QB50P2 26 May 23:22:59 23:25:18 15° 90° (E) 23:27:47 145.880/145.840
AISAT 26 May 23:25:03 23:29:29 88° 76° (ENE) 23:33:59 437.250
FUNcube-1 26 May 23:26:22 23:30:11 25° 267° (W) 23:33:54 145.935
50 SAT 26 May 23:26:39 23:30:40 81° 257° (WSW) 23:34:40 437.505
SPROUT 26 May 23:34:40 23:37:02 15° 66° (ENE) 23:39:34 437.525
POPSAT HIP 1 26 May 23:34:44 23:37:46 19° 92° (E) 23:40:56 437.405
DUCHIFAT 1 26 May 23:36:51 23:39:56 20° 93° (E) 23:43:07 145.980
Cosmos 2504 26 May 23:40:08 23:45:21 21° 276° (W) 23:50:15 435.465 / 435.565
TIGRISAT 26 May 23:53:11 23:57:35 70° 102° (ESE) 00:01:50 435.000
TISAT 1 26 May 23:58:13 00:01:11 19° 67° (ENE) 00:04:19 437.305
BUGSAT 1 27 May 00:00:43 00:04:15 25° 95° (E) 00:07:49 437.445
HUMSAT D 27 May 00:03:26 00:06:37 19° 268° (W) 00:09:41 437.325/437.525
UKube-1 27 May 00:10:13 00:13:02 16° 268° (W) 00:15:42 .
UNISAT 6 27 May 00:13:33 00:17:56 67° 285° (WNW) 00:22:11 437.425
PCSat 27 May 00:17:53 00:20:55 16° 106° (ESE) 00:24:13 145.827
QB50P1 27 May 00:17:56 00:22:11 61° 100° (E) 00:26:24 145.935-145.965
DX 1 27 May 00:19:41 00:21:38 12° 271° (W) 00:23:21 434.975-435.025
POLYITAN 1 27 May 00:19:48 00:24:05 65° 101° (E) 00:28:18 437.675
DANDE 27 May 00:22:47 00:30:24 48° 71° (ENE) 00:36:31 436.750
CUBEBUG 1 27 May 00:29:13 00:33:16 37° 263° (W) 00:37:21 437.445
VELOX 1 27 May 00:31:31 00:34:45 19° 268° (W) 00:37:51 145.980
ESTCUBE 1 27 May 00:32:36 00:36:36 31° 264° (W) 00:40:34 437.505/2401.250
ITUPSAT 1 27 May 00:45:40 00:47:07 12° 62° (ENE) 00:48:50 437.325
GONETS M04 27 May 00:46:47 00:55:29 61° 78° (ENE) 01:04:06
ISS 27 May 00:47:34 00:50:44 49° 328° (NNW) 00:53:55 145.825
NANOSAT C BR1 27 May 00:49:24 00:53:38 59° 286° (WNW) 00:57:48 145.865
BEESAT 27 May 00:52:32 00:54:51 14° 63° (ENE) 00:57:24 436.000
CUSAT 1 27 May 00:55:56 01:03:15 79° 262° (W) 01:08:49 437.405
QB50P2 27 May 00:57:23 01:01:30 46° 287° (WNW) 01:05:34 145.880/145.840
ANTELSAT 27 May 00:57:36 01:01:06 23° 292° (WNW) 01:04:27 437.575/2403.000
SWISSCUBE 27 May 01:00:07 01:03:14 18° 65° (ENE) 01:06:30 437.505
